Regional Weather Roundup
Issued by NWS

Home | Current Version | Previous Version | Text Only | Print | Product List | Glossary Off
Versions: 1 2 3 4 5 6 7 8 9 10 11 12 13 14 15 16 17 18 19 20 21 22 23 24 25 26 27 28 29 30 31 32 33 34 35 36 37 38 39 40 41 42 43 44 45 46 47 48 49 50

000
ASUS43 KLSX 211459
RWRMO

WEATHER SUMMARY FOR MISSOURI
NATIONAL WEATHER SERVICE SPRINGFIELD MO
1000 AM CDT MON APR 21 2014

NOTE: "FAIR" INDICATES FEW OR NO CLOUDS BELOW 12,000 FEET WITH NO
       SIGNIFICANT WEATHER AND/OR OBSTRUCTIONS TO VISIBILITY.
       CURRENT SKY AND/OR WEATHER CONDITIONS ARE NOT AVAILABLE FOR
       CHILLICOTHE AND FARMINGTON.

MOZ001>031-035>038-043-044-053-054-211600-
...NORTHERN AND WESTERN MISSOURI...

CITY           SKY/WX    TMP DP  RH WIND       PRES   REMARKS
KANSAS CTY INT PTSUNNY   64  58  80 SW8       29.99F
KANSAS C DTWN  CLOUDY    65  59  81 SW9       29.99F
LEE`S SUMMIT   CLOUDY    61  58  90 SW7       30.01S
ST JOSEPH      PTSUNNY   64  59  83 SW9       29.98S
CHILLICOTHE      N/A     62  59  90 S6        29.99F
KIRKSVILLE     LGT RAIN  62  57  83 W8        30.00R

$$
MOZ066>068-077>081-088>096-101>105-211600-
...SOUTHWEST MISSOURI...

CITY           SKY/WX    TMP DP  RH WIND       PRES   REMARKS
SPRINGFIELD    LGT RAIN  62  59  90 S3        30.04S
JOPLIN         CLOUDY    63  60  90 S13       30.03S

$$
MOZ032>034-039>042-045>050-055>058-069>072-211600-
...CENTRAL MISSOURI...

CITY           SKY/WX    TMP DP  RH WIND       PRES   REMARKS
COLUMBIA       CLOUDY    65  60  84 W7        30.01F
JEFFERSON CITY CLOUDY    64  60  87 S5        30.01F
ROLLA          CLOUDY    60  57  89 S7        30.02F
SEDALIA        PTSUNNY   66  59  78 SW12      30.02S
OSAGE BEACH    CLOUDY    61  57  88 S5        30.04F

$$
MOZ051-052-059>065-211600-
...EAST CENTRAL MISSOURI...

CITY           SKY/WX    TMP DP  RH WIND       PRES   REMARKS
ST LOUIS INTL  LGT RAIN  68  52  56 SW10      30.02S
SPIRIT OF STL  LGT RAIN  64  55  72 S7        30.02R
ST CHARLES     LGT RAIN  63  56  78 SW14      30.01S

$$
MOZ072>076-082>087-097>100-106>115-211600-
...SOUTH CENTRAL AND SOUTHEAST MISSOURI...

CITY           SKY/WX    TMP DP  RH WIND       PRES   REMARKS
CAPE GIRARDEAU CLOUDY    66  53  63 SW5       30.04F
FARMINGTON     CLOUDY    63  55  77 CALM      30.06F
POPLAR BLUFF   CLOUDY    65  54  67 CALM      30.04F
WEST PLAINS    CLOUDY    62  57  83 W6        30.06F

$$



USA.gov is the U.S. government's official web portal to all federal, state and local government web resources and services.